EUS35RD LIRF-LGSK

Flight info

Callsign EUS35RD
Flight time 1h 27m
Altitude 37000
Route OKUNO DCT GOKEL DCT DIMIS UL604 YNN UV651 AGH
Aircraft B738/M-SDE2E3FGHIRWXY/LB1

Departure

Time 2026-05-07 17:12
Airport Rome–Fiumicino Leonardo da Vinci International Airport (LIRF)

Arrival

Time 2026-05-07 18:40
Airport Skiathos Island National Airport (LGSK)
Time Latitude Longitude Altitude Speed Heading
2026-05-07 16:55 41.79703 12.25826 14 ft 0 kts 116°
2026-05-07 17:02 41.79709 12.25811 16 ft 4 kts 116°
2026-05-07 17:02 41.79718 12.25784 14 ft 4 kts 113°
2026-05-07 17:02 41.79720 12.25757 15 ft 4 kts 49°
2026-05-07 17:03 41.79700 12.25739 15 ft 4 kts 26°
2026-05-07 17:03 41.79676 12.25723 15 ft 4 kts 26°
2026-05-07 17:03 41.79653 12.25707 16 ft 2 kts 26°
2026-05-07 17:03 41.79651 12.25706 16 ft 0 kts 26°
2026-05-07 17:06 41.79672 12.25720 16 ft 8 kts 26°
2026-05-07 17:06 41.79742 12.25766 14 ft 13 kts 26°
2026-05-07 17:07 41.79823 12.25817 14 ft 13 kts 15°
2026-05-07 17:07 41.79913 12.25847 14 ft 14 kts 25°
2026-05-07 17:07 41.80002 12.25903 14 ft 15 kts 25°
2026-05-07 17:07 41.80102 12.25964 14 ft 14 kts 24°
2026-05-07 17:08 41.80198 12.26023 14 ft 16 kts 25°
2026-05-07 17:08 41.80296 12.26083 14 ft 16 kts 25°
2026-05-07 17:08 41.80392 12.26143 16 ft 9 kts 25°
2026-05-07 17:08 41.80461 12.26176 17 ft 11 kts 14°
2026-05-07 17:09 41.80528 12.26242 14 ft 13 kts 60°
2026-05-07 17:09 41.80564 12.26364 15 ft 15 kts 70°
2026-05-07 17:09 41.80602 12.26506 14 ft 17 kts 70°
2026-05-07 17:09 41.80647 12.26664 14 ft 19 kts 69°
2026-05-07 17:10 41.80694 12.26837 16 ft 21 kts 70°
2026-05-07 17:10 41.80738 12.26992 15 ft 13 kts 68°
2026-05-07 17:10 41.80810 12.27043 14 ft 13 kts 343°
2026-05-07 17:10 41.80896 12.27001 15 ft 14 kts 339°
2026-05-07 17:11 41.80954 12.26910 13 ft 15 kts 257°
2026-05-07 17:11 41.80943 12.26868 13 ft 0 kts 249°
2026-05-07 17:11 41.80939 12.26854 13 ft 14 kts 249°
2026-05-07 17:12 41.80811 12.26390 17 ft 90 kts 249°
2026-05-07 17:12 41.80516 12.25317 29 ft 152 kts 253°
2026-05-07 17:12 41.80126 12.23908 601 ft 164 kts 252°
2026-05-07 17:12 41.79708 12.22449 1394 ft 171 kts 251°
2026-05-07 17:13 41.79354 12.20904 2053 ft 183 kts 268°
2026-05-07 17:13 41.79746 12.19179 2321 ft 210 kts 307°
2026-05-07 17:13 41.80680 12.17524 2558 ft 234 kts 307°
2026-05-07 17:13 41.81648 12.15703 3077 ft 246 kts 306°
2026-05-07 17:14 41.82619 12.13786 3871 ft 249 kts 304°
2026-05-07 17:14 41.83574 12.11851 4736 ft 250 kts 304°
2026-05-07 17:14 41.84520 12.09867 5637 ft 257 kts 298°
2026-05-07 17:14 41.84917 12.07471 6096 ft 274 kts 264°
2026-05-07 17:15 41.84292 12.05066 6817 ft 276 kts 234°
2026-05-07 17:15 41.82908 12.03367 7626 ft 276 kts 207°
2026-05-07 17:15 41.81075 12.02713 8450 ft 276 kts 180°
2026-05-07 17:15 41.79211 12.03314 9111 ft 281 kts 152°
2026-05-07 17:16 41.77660 12.04932 9902 ft 286 kts 136°
2026-05-07 17:16 41.76282 12.06926 10371 ft 302 kts 134°
2026-05-07 17:16 41.74829 12.09089 10670 ft 320 kts 134°
2026-05-07 17:16 41.73299 12.11304 11283 ft 327 kts 135°
2026-05-07 17:17 41.71730 12.13531 12028 ft 330 kts 135°
2026-05-07 17:17 41.70072 12.15672 12777 ft 333 kts 141°
2026-05-07 17:17 41.68286 12.17670 13531 ft 337 kts 143°
2026-05-07 17:17 41.66456 12.19672 14234 ft 342 kts 142°
2026-05-07 17:18 41.64615 12.21717 14945 ft 346 kts 142°
2026-05-07 17:18 41.62762 12.23803 15690 ft 350 kts 141°
2026-05-07 17:18 41.61208 12.26357 16354 ft 362 kts 120°
2026-05-07 17:18 41.60471 12.29610 17052 ft 373 kts 96°
2026-05-07 17:19 41.60745 12.33080 17715 ft 382 kts 71°
2026-05-07 17:19 41.62075 12.36158 18337 ft 388 kts 46°
2026-05-07 17:19 41.63348 12.37840 18735 ft 389 kts 41°
2026-05-07 17:19 41.66052 12.41104 19576 ft 393 kts 39°
2026-05-07 17:20 41.67408 12.42717 19998 ft 395 kts 39°
2026-05-07 17:20 41.69465 12.45185 20632 ft 398 kts 39°
2026-05-07 17:20 41.71524 12.47693 21253 ft 401 kts 40°
2026-05-07 17:20 41.73585 12.50234 21858 ft 405 kts 40°
2026-05-07 17:21 41.75665 12.52816 22453 ft 408 kts 39°
2026-05-07 17:21 41.77754 12.55416 23035 ft 412 kts 39°
2026-05-07 17:21 41.79864 12.58041 23596 ft 415 kts 39°
2026-05-07 17:21 41.82071 12.60543 24058 ft 417 kts 33°
2026-05-07 17:22 41.84440 12.62810 24463 ft 420 kts 30°
2026-05-07 17:22 41.86851 12.64980 24853 ft 425 kts 30°
2026-05-07 17:22 41.89324 12.67200 25257 ft 429 kts 30°
2026-05-07 17:22 41.91807 12.69469 25692 ft 434 kts 30°
2026-05-07 17:23 41.94296 12.71785 26058 ft 438 kts 31°
2026-05-07 17:23 41.96810 12.74153 26455 ft 443 kts 31°
2026-05-07 17:23 41.99338 12.76544 26838 ft 447 kts 31°
2026-05-07 17:23 42.01899 12.78969 27244 ft 451 kts 31°
2026-05-07 17:24 42.04238 12.81837 27585 ft 464 kts 50°
2026-05-07 17:24 42.05959 12.85550 27976 ft 470 kts 60°
2026-05-07 17:24 42.07502 12.89460 28306 ft 475 kts 60°
2026-05-07 17:24 42.08989 12.93449 28607 ft 481 kts 69°
2026-05-07 17:25 42.09760 12.97797 28963 ft 484 kts 85°
2026-05-07 17:25 42.09682 13.02290 29311 ft 480 kts 104°
2026-05-07 17:25 42.08839 13.06630 29686 ft 479 kts 111°
2026-05-07 17:25 42.07865 13.10932 30023 ft 482 kts 112°
2026-05-07 17:26 42.06856 13.15257 30324 ft 485 kts 112°
2026-05-07 17:26 42.05846 13.19595 30659 ft 487 kts 112°
2026-05-07 17:26 42.04843 13.23956 30982 ft 488 kts 111°
2026-05-07 17:26 42.03851 13.28323 31308 ft 489 kts 112°
2026-05-07 17:27 42.02864 13.32716 31589 ft 491 kts 111°
2026-05-07 17:27 42.01879 13.37126 31875 ft 493 kts 111°
2026-05-07 17:27 42.00896 13.41541 32254 ft 492 kts 111°
2026-05-07 17:27 41.99922 13.45919 32886 ft 485 kts 111°
2026-05-07 17:28 41.98954 13.50260 33313 ft 484 kts 111°
2026-05-07 17:28 41.97986 13.54583 33721 ft 482 kts 112°
2026-05-07 17:28 41.97017 13.58896 34110 ft 481 kts 112°
2026-05-07 17:28 41.96048 13.63193 34397 ft 481 kts 112°
2026-05-07 17:29 41.95078 13.67487 34658 ft 481 kts 112°
2026-05-07 17:29 41.94115 13.71735 34913 ft 482 kts 112°
2026-05-07 17:29 41.93137 13.76046 35169 ft 483 kts 112°
2026-05-07 17:29 41.92150 13.80385 35354 ft 487 kts 112°
2026-05-07 17:30 41.90147 13.89154 35492 ft 496 kts 112°
2026-05-07 17:30 41.89132 13.93593 35704 ft 498 kts 112°
2026-05-07 17:30 41.88115 13.98044 35963 ft 498 kts 113°
2026-05-07 17:31 41.87100 14.02496 36180 ft 500 kts 113°
2026-05-07 17:31 41.86078 14.06946 36387 ft 501 kts 113°
2026-05-07 17:31 41.85045 14.11427 36602 ft 502 kts 113°
2026-05-07 17:31 41.84009 14.15908 36793 ft 504 kts 114°
2026-05-07 17:32 41.82968 14.20402 36968 ft 505 kts 114°
2026-05-07 17:32 41.81921 14.24916 37011 ft 509 kts 114°
2026-05-07 17:32 41.79808 14.33999 36980 ft 509 kts 114°
2026-05-07 17:33 41.77704 14.43033 37010 ft 507 kts 114°
2026-05-07 17:33 41.75595 14.52039 37004 ft 506 kts 114°
2026-05-07 17:34 41.73481 14.61027 37001 ft 506 kts 114°
2026-05-07 17:34 41.71357 14.70010 36994 ft 506 kts 114°
2026-05-07 17:35 41.69235 14.78951 37006 ft 508 kts 114°
2026-05-07 17:35 41.67086 14.87977 36989 ft 511 kts 114°
2026-05-07 17:36 41.64921 14.97036 37005 ft 513 kts 115°
2026-05-07 17:36 41.62732 15.06161 36996 ft 517 kts 115°
2026-05-07 17:37 41.60513 15.15360 36983 ft 523 kts 115°
2026-05-07 17:37 41.58271 15.24628 36991 ft 526 kts 115°
2026-05-07 17:38 41.56011 15.33945 36971 ft 527 kts 115°
2026-05-07 17:38 41.53763 15.43187 36952 ft 520 kts 115°
2026-05-07 17:39 41.51521 15.52353 36957 ft 519 kts 115°
2026-05-07 17:39 41.49284 15.61445 36965 ft 519 kts 115°
2026-05-07 17:40 41.47011 15.70639 36979 ft 525 kts 115°
2026-05-07 17:40 41.44694 15.79982 36962 ft 527 kts 115°
2026-05-07 17:41 41.42419 15.89155 36966 ft 523 kts 115°
2026-05-07 17:41 41.40131 15.98330 36971 ft 521 kts 115°
2026-05-07 17:42 41.37830 16.07504 36993 ft 525 kts 115°
2026-05-07 17:42 41.35494 16.16767 36992 ft 529 kts 115°
2026-05-07 17:43 41.33156 16.26036 36977 ft 527 kts 115°
2026-05-07 17:43 41.30856 16.35122 36983 ft 524 kts 115°
2026-05-07 17:44 41.28525 16.44286 36987 ft 522 kts 115°
2026-05-07 17:44 41.26188 16.53426 36994 ft 522 kts 115°
2026-05-07 17:45 41.23844 16.62562 36991 ft 522 kts 115°
2026-05-07 17:45 41.21490 16.71701 36995 ft 524 kts 115°
2026-05-07 17:46 41.19134 16.80813 36992 ft 526 kts 115°
2026-05-07 17:46 41.16745 16.90024 36995 ft 528 kts 115°
2026-05-07 17:47 41.14340 16.99262 36996 ft 530 kts 115°
2026-05-07 17:47 41.11922 17.08515 37000 ft 532 kts 115°
2026-05-07 17:48 41.09490 17.17787 37009 ft 533 kts 115°
2026-05-07 17:48 41.07047 17.27062 37011 ft 533 kts 115°
2026-05-07 17:49 41.04597 17.36335 37012 ft 533 kts 115°
2026-05-07 17:49 41.02141 17.45591 37014 ft 532 kts 115°
2026-05-07 17:50 40.99683 17.54821 37013 ft 532 kts 115°
2026-05-07 17:50 40.97217 17.64046 37011 ft 531 kts 115°
2026-05-07 17:51 40.94750 17.73239 37024 ft 530 kts 115°
2026-05-07 17:51 40.92280 17.82408 37015 ft 529 kts 115°
2026-05-07 17:52 40.89808 17.91554 37017 ft 528 kts 115°
2026-05-07 17:52 40.87348 18.00620 37024 ft 527 kts 115°
2026-05-07 17:53 40.84867 18.09729 37023 ft 527 kts 115°
2026-05-07 17:53 40.82380 18.18829 37023 ft 527 kts 115°
2026-05-07 17:54 40.79887 18.27920 37032 ft 527 kts 115°
2026-05-07 17:54 40.77384 18.37009 37037 ft 527 kts 115°
2026-05-07 17:55 40.74871 18.46107 37037 ft 528 kts 115°
2026-05-07 17:55 40.72366 18.55141 37042 ft 528 kts 115°
2026-05-07 17:56 40.69835 18.64239 37043 ft 529 kts 115°
2026-05-07 17:56 40.67292 18.73347 37045 ft 530 kts 114°
2026-05-07 17:57 40.65172 18.80914 37049 ft 530 kts 114°
2026-05-07 17:57 40.62178 18.91568 37056 ft 531 kts 114°
2026-05-07 17:58 40.59608 19.00675 37059 ft 531 kts 115°
2026-05-07 17:58 40.56848 19.09596 37060 ft 529 kts 117°
2026-05-07 17:59 40.53923 19.18468 37063 ft 528 kts 118°
2026-05-07 17:59 40.51013 19.27332 37066 ft 528 kts 117°
2026-05-07 18:00 40.48127 19.36221 37052 ft 528 kts 117°
2026-05-07 18:00 40.45250 19.45101 37053 ft 528 kts 117°
2026-05-07 18:01 40.42366 19.53972 37075 ft 528 kts 117°
2026-05-07 18:01 40.39472 19.62835 37074 ft 528 kts 117°
2026-05-07 18:02 40.35114 19.76123 37073 ft 529 kts 117°
2026-05-07 18:03 40.32219 19.84918 37078 ft 527 kts 117°
2026-05-07 18:03 40.29308 19.93733 37090 ft 526 kts 116°
2026-05-07 18:04 40.26395 20.02524 37100 ft 526 kts 116°
2026-05-07 18:04 40.23463 20.11344 37082 ft 528 kts 116°
2026-05-07 18:05 40.20526 20.20148 37124 ft 527 kts 116°
2026-05-07 18:05 40.17614 20.28880 37102 ft 521 kts 116°
2026-05-07 18:06 40.14685 20.37598 37100 ft 525 kts 116°
2026-05-07 18:06 40.11746 20.46336 37029 ft 525 kts 116°
2026-05-07 18:07 40.09262 20.53515 37095 ft 517 kts 123°
2026-05-07 18:07 40.07242 20.57344 37091 ft 506 kts 138°
2026-05-07 18:07 40.04749 20.60501 37118 ft 497 kts 150°
2026-05-07 18:07 40.00889 20.63628 37110 ft 481 kts 166°
2026-05-07 18:08 39.98863 20.64817 37129 ft 483 kts 166°
2026-05-07 18:08 39.92682 20.68406 37113 ft 489 kts 165°
2026-05-07 18:09 39.85498 20.72721 37103 ft 486 kts 164°
2026-05-07 18:09 39.83432 20.73979 36905 ft 484 kts 164°
2026-05-07 18:09 39.80403 20.75823 36594 ft 476 kts 165°
2026-05-07 18:09 39.77454 20.77612 36232 ft 472 kts 165°
2026-05-07 18:10 39.74488 20.79409 35865 ft 470 kts 163°
2026-05-07 18:10 39.71719 20.81777 35443 ft 486 kts 144°
2026-05-07 18:10 39.69505 20.85144 35073 ft 496 kts 126°
2026-05-07 18:10 39.68072 20.89226 34681 ft 499 kts 108°
2026-05-07 18:11 39.67085 20.93544 34290 ft 497 kts 107°
2026-05-07 18:11 39.66139 20.97849 33848 ft 496 kts 107°
2026-05-07 18:11 39.65192 21.02142 33402 ft 493 kts 107°
2026-05-07 18:11 39.64233 21.06395 33043 ft 489 kts 107°
2026-05-07 18:12 39.63257 21.10626 32614 ft 487 kts 108°
2026-05-07 18:12 39.62273 21.14811 32250 ft 483 kts 108°
2026-05-07 18:12 39.61286 21.18961 31871 ft 480 kts 107°
2026-05-07 18:12 39.60300 21.23084 31484 ft 477 kts 108°
2026-05-07 18:13 39.59316 21.27186 31111 ft 475 kts 107°
2026-05-07 18:13 39.58350 21.31207 30747 ft 472 kts 107°
2026-05-07 18:13 39.57374 21.35271 30368 ft 470 kts 107°
2026-05-07 18:13 39.56393 21.39349 29954 ft 466 kts 107°
2026-05-07 18:14 39.55433 21.43339 29514 ft 462 kts 107°
2026-05-07 18:14 39.54494 21.47234 29122 ft 458 kts 107°
2026-05-07 18:14 39.53547 21.51158 28693 ft 455 kts 107°
2026-05-07 18:14 39.52607 21.55046 28317 ft 450 kts 107°
2026-05-07 18:15 39.51675 21.58890 27907 ft 443 kts 107°
2026-05-07 18:15 39.50759 21.62666 27556 ft 437 kts 108°
2026-05-07 18:15 39.49853 21.66397 27151 ft 433 kts 108°
2026-05-07 18:15 39.48950 21.70106 26759 ft 430 kts 108°
2026-05-07 18:16 39.48055 21.73777 26379 ft 426 kts 108°
2026-05-07 18:16 39.47165 21.77423 25994 ft 423 kts 108°
2026-05-07 18:16 39.46281 21.81039 25614 ft 420 kts 108°
2026-05-07 18:16 39.45403 21.84624 25233 ft 416 kts 108°
2026-05-07 18:17 39.44530 21.88182 24854 ft 413 kts 108°
2026-05-07 18:17 39.43662 21.91715 24480 ft 411 kts 108°
2026-05-07 18:17 39.42800 21.95221 24164 ft 405 kts 108°
2026-05-07 18:17 39.41958 21.98639 24121 ft 392 kts 108°
2026-05-07 18:18 39.41124 22.02021 23410 ft 400 kts 108°
2026-05-07 18:18 39.40288 22.05403 23279 ft 389 kts 108°
2026-05-07 18:18 39.39475 22.08694 22670 ft 385 kts 108°
2026-05-07 18:18 39.38666 22.11958 22234 ft 377 kts 109°
2026-05-07 18:19 39.37870 22.15165 21844 ft 373 kts 109°
2026-05-07 18:19 39.37080 22.18348 21488 ft 371 kts 109°
2026-05-07 18:19 39.36293 22.21508 21139 ft 368 kts 109°
2026-05-07 18:19 39.35510 22.24654 20792 ft 366 kts 109°
2026-05-07 18:20 39.34734 22.27765 20450 ft 363 kts 109°
2026-05-07 18:20 39.33969 22.30830 20111 ft 361 kts 109°
2026-05-07 18:20 39.33200 22.33910 19777 ft 359 kts 109°
2026-05-07 18:20 39.32432 22.36978 19443 ft 357 kts 109°
2026-05-07 18:21 39.31669 22.40022 19112 ft 355 kts 109°
2026-05-07 18:21 39.30906 22.43053 18779 ft 354 kts 109°
2026-05-07 18:21 39.30142 22.46063 18452 ft 352 kts 109°
2026-05-07 18:21 39.29376 22.49073 18075 ft 351 kts 109°
2026-05-07 18:22 39.28617 22.52055 17713 ft 349 kts 109°
2026-05-07 18:22 39.28117 22.54022 17474 ft 347 kts 110°
2026-05-07 18:22 39.27113 22.57960 17016 ft 344 kts 110°
2026-05-07 18:22 39.26368 22.60880 16686 ft 341 kts 110°
2026-05-07 18:23 39.25629 22.63775 16363 ft 339 kts 110°
2026-05-07 18:23 39.24893 22.66654 16041 ft 337 kts 110°
2026-05-07 18:23 39.24161 22.69517 15711 ft 335 kts 110°
2026-05-07 18:23 39.23434 22.72357 15387 ft 333 kts 110°
2026-05-07 18:24 39.22709 22.75182 15073 ft 331 kts 110°
2026-05-07 18:24 39.21988 22.77988 14757 ft 329 kts 110°
2026-05-07 18:24 39.21244 22.80771 14460 ft 327 kts 112°
2026-05-07 18:24 39.20430 22.83447 14187 ft 323 kts 114°
2026-05-07 18:25 39.19577 22.86122 13883 ft 322 kts 115°
2026-05-07 18:25 39.18722 22.88779 13546 ft 320 kts 115°
2026-05-07 18:25 39.17873 22.91424 13211 ft 318 kts 115°
2026-05-07 18:25 39.17032 22.94055 12893 ft 316 kts 114°
2026-05-07 18:26 39.16199 22.96671 12574 ft 314 kts 114°
2026-05-07 18:26 39.15373 22.99270 12250 ft 312 kts 114°
2026-05-07 18:26 39.14553 23.01853 11952 ft 311 kts 114°
2026-05-07 18:26 39.13738 23.04422 11645 ft 309 kts 114°
2026-05-07 18:27 39.12927 23.06981 11331 ft 307 kts 114°
2026-05-07 18:27 39.12121 23.09520 11029 ft 306 kts 114°
2026-05-07 18:27 39.11317 23.12050 10712 ft 304 kts 114°
2026-05-07 18:27 39.10516 23.14568 10399 ft 303 kts 114°
2026-05-07 18:28 39.09722 23.17067 10186 ft 298 kts 114°
2026-05-07 18:28 39.08940 23.19522 9913 ft 296 kts 114°
2026-05-07 18:28 39.08173 23.21932 9597 ft 294 kts 114°
2026-05-07 18:28 39.07397 23.24363 9283 ft 293 kts 114°
2026-05-07 18:29 39.06626 23.26779 8960 ft 291 kts 114°
2026-05-07 18:29 39.05858 23.29183 8646 ft 290 kts 114°
2026-05-07 18:29 39.05091 23.31582 8330 ft 289 kts 114°
2026-05-07 18:29 39.04329 23.33965 8008 ft 288 kts 114°
2026-05-07 18:30 39.03566 23.36345 7705 ft 286 kts 114°
2026-05-07 18:30 39.02820 23.38674 7362 ft 282 kts 114°
2026-05-07 18:30 39.02077 23.40992 6972 ft 278 kts 114°
2026-05-07 18:30 39.01346 23.43269 6664 ft 274 kts 113°
2026-05-07 18:31 39.00621 23.45526 6384 ft 273 kts 113°
2026-05-07 18:31 38.99898 23.47777 6097 ft 272 kts 113°
2026-05-07 18:31 38.99177 23.50017 5819 ft 270 kts 114°
2026-05-07 18:31 38.98469 23.52217 5546 ft 269 kts 114°
2026-05-07 18:32 38.97758 23.54422 5265 ft 267 kts 114°
2026-05-07 18:32 38.97049 23.56617 4997 ft 265 kts 114°
2026-05-07 18:32 38.96453 23.58846 4708 ft 265 kts 98°
2026-05-07 18:32 38.96655 23.61169 4498 ft 262 kts 68°
2026-05-07 18:33 38.97682 23.63041 4333 ft 256 kts 39°
2026-05-07 18:33 38.99226 23.64056 4211 ft 247 kts 13°
2026-05-07 18:33 39.00891 23.64211 4121 ft 234 kts 355°
2026-05-07 18:33 39.02464 23.64006 3991 ft 221 kts 352°
2026-05-07 18:34 39.03958 23.63758 3805 ft 213 kts 351°
2026-05-07 18:34 39.05411 23.63517 3602 ft 208 kts 352°
2026-05-07 18:34 39.06832 23.63288 3410 ft 204 kts 352°
2026-05-07 18:34 39.08223 23.63069 3222 ft 198 kts 352°
2026-05-07 18:35 39.09567 23.62863 3026 ft 191 kts 352°
2026-05-07 18:35 39.10855 23.62669 2827 ft 184 kts 352°
2026-05-07 18:35 39.12115 23.62479 2651 ft 181 kts 353°
2026-05-07 18:35 39.13374 23.62290 2461 ft 182 kts 353°
2026-05-07 18:36 39.14624 23.62104 2256 ft 180 kts 353°
2026-05-07 18:36 39.15865 23.61910 2022 ft 179 kts 353°
2026-05-07 18:36 39.17076 23.61711 1797 ft 177 kts 351°
2026-05-07 18:36 39.18248 23.61245 1653 ft 178 kts 333°
2026-05-07 18:37 39.19335 23.60488 1616 ft 176 kts 332°
2026-05-07 18:37 39.20348 23.59671 1581 ft 169 kts 319°
2026-05-07 18:37 39.21220 23.58681 1597 ft 165 kts 319°
2026-05-07 18:37 39.22087 23.57710 1598 ft 166 kts 319°
2026-05-07 18:38 39.22961 23.56736 1562 ft 168 kts 317°
2026-05-07 18:38 39.23536 23.55454 1317 ft 165 kts 274°
2026-05-07 18:38 39.23255 23.54103 1308 ft 154 kts 234°
2026-05-07 18:38 39.22632 23.53010 1285 ft 150 kts 223°
2026-05-07 18:39 39.21745 23.52266 1052 ft 155 kts 208°
2026-05-07 18:39 39.20743 23.51708 576 ft 160 kts 198°
2026-05-07 18:39 39.19729 23.51278 323 ft 149 kts 199°
2026-05-07 18:39 39.18782 23.50840 163 ft 144 kts 200°
2026-05-07 18:40 39.17876 23.50429 40 ft 105 kts 198°
2026-05-07 18:40 39.17544 23.50284 34 ft 0 kts 199°
2026-05-07 18:40 39.17525 23.50276 33 ft 7 kts 199°
2026-05-07 18:40 39.17453 23.50244 31 ft 14 kts 198°
2026-05-07 18:41 39.17350 23.50200 27 ft 17 kts 202°
2026-05-07 18:41 39.17228 23.50143 24 ft 19 kts 199°
2026-05-07 18:41 39.17124 23.50098 19 ft 14 kts 198°
2026-05-07 18:41 39.17047 23.50048 16 ft 10 kts 185°
2026-05-07 18:42 39.17024 23.50067 16 ft 1 kts 98°
2026-05-07 18:42 39.17030 23.50071 18 ft 1 kts 18°
2026-05-07 18:42 39.17053 23.50077 19 ft 7 kts 11°
2026-05-07 18:42 39.17120 23.50097 19 ft 11 kts 15°
2026-05-07 18:43 39.17201 23.50130 21 ft 13 kts 21°
2026-05-07 18:43 39.17294 23.50173 23 ft 15 kts 19°
2026-05-07 18:43 39.17393 23.50216 28 ft 15 kts 18°
2026-05-07 18:43 39.17486 23.50256 32 ft 13 kts 17°
2026-05-07 18:44 39.17565 23.50230 34 ft 13 kts 316°
2026-05-07 18:44 39.17640 23.50218 35 ft 11 kts 20°
2026-05-07 18:44 39.17666 23.50223 35 ft 2 kts 334°
2026-05-07 18:44 39.17667 23.50203 33 ft 3 kts 242°
2026-05-07 18:45 39.17650 23.50204 31 ft 0 kts 161°